This demonstration page uses our WeatherBlox Daily Observations layout. Learn more.

Left ArrowRight Arrow

36.17497, -115.13722

Hourly Observations for August 20, 2019

Temp ( °F °C ) Dew Point ( °F °C ) Humidity (%) Winds ( mph kmh ) Pressure ( in mb ) Visibility ( mi km ) Precip ( " mm )
12:53 am 00:53 Clear 82 27.8 26 -3.3 13 13 NW 7 11 29.84 1011 10 16 0.00 0.00
1:53 am 01:53 Clear 81 27.2 23 -5 12 12 NNW 8 13 29.84 1010 10 16 0.00 0.00
2:53 am 02:53 Clear 78 25.6 25 -3.9 14 14 NNW 6 9 29.85 1011 10 16 0.00 0.00
3:53 am 03:53 Clear 78 25.6 29 -1.7 16 16 Calm 29.86 1011 10 16 0.00 0.00
4:53 am 04:53 Clear 77 25 30 -1.1 18 18 WNW 5 7 29.86 1011 10 16 0.00 0.00
5:53 am 05:53 Clear 75 23.9 29 -1.7 18 18 NW 6 9 29.87 1012 10 16 0.00 0.00
6:53 am 06:53 Sunny 75 23.9 29 -1.7 18 18 Calm 29.90 1013 10 16 0.00 0.00
7:53 am 07:53 Sunny 82 27.8 28 -2.2 14 14 Calm 29.90 1013 10 16 0.00 0.00
8:53 am 08:53 Sunny 87 30.6 27 -2.8 11 11 Calm 29.91 1013 10 16 0.00 0.00
9:53 am 09:53 Sunny 91 32.8 27 -2.8 10 10 E 7 11 29.91 1013 10 16 0.00 0.00
10:53 am 10:53 Sunny 94 34.4 27 -2.8 9 9 VRB 3 6 29.91 1013 10 16 0.00 0.00
11:53 am 11:53 Sunny 96 35.6 28 -2.2 9 9 VRB 5 7 29.90 1013 10 16 0.00 0.00
12:53 pm 12:53 Sunny 98 36.7 27 -2.8 8 8 ESE 6 9 29.87 1012 10 16 0.00 0.00
1:53 pm 13:53 Sunny 100 37.8 27 -2.8 7 7 undefined N/A 29.85 1011 10 16 0.00 0.00
2:53 pm 14:53 Sunny 101 38.3 25 -3.9 7 7 undefined N/A 29.82 1010 10 16 0.00 0.00
3:53 pm 15:53 Sunny 103 39.4 24 -4.4 6 6 VRB 6 9 29.79 1009 10 16 0.00 0.00
4:53 pm 16:53 Sunny 103 39.4 26 -3.3 6 6 ESE 7 11 29.78 1008 10 16 0.00 0.00
5:53 pm 17:53 Sunny 104 40 27 -2.8 7 7 S 8 13 29.76 1008 10 16 0.00 0.00
6:53 pm 18:53 Sunny 103 39.4 22 -5.6 5 5 SSW 10 17 29.76 1008 10 16 0.00 0.00
7:53 pm 19:53 Clear 100 37.8 25 -3.9 7 7 WSW 6 9 29.77 1008 10 16 0.00 0.00
8:53 pm 20:53 Clear 95 35 25 -3.9 8 8 SE 3 6 29.78 1008 10 16 0.00 0.00
9:53 pm 21:53 Clear 96 35.6 25 -3.9 8 8 SSW 6 9 29.79 1009 10 16 0.00 0.00
10:53 pm 22:53 Clear 89 31.7 30 -1.1 12 12 NNW 3 6 29.80 1009 10 16 0.00 0.00
11:53 pm 23:53 Clear 85 29.4 28 -2.2 13 13 Calm 29.81 1009 10 16 0.00 0.00

Powered by AerisWeather